World > North America > United States > Wyoming > Frontier

Frontier, WY Hourly Weather Conditions

Feedback E-mail the Weather

Quick WX

Frontier, WY Weather Maps

°F °C°F °C
Frontier Weather Map
UTC Time: 11/28/2022, 09:40
Your Time:

Frontier, WY Regional Weather

Expires:202211281000;;937300
ASUS45 KCYS 280910
RWRWY 

WYOMING REGIONAL WEATHER ROUNDUP
NATIONAL WEATHER SERVICE CHEYENNE WY
200 AM MST MON NOV 28 2022

NOTE:  "FAIR" INDICATES FEW OR NO CLOUDS BELOW 12,000 FEET
WITH NO SIGNIFICANT WEATHER AND/OR OBSTRUCTIONS TO VISIBILITY.


WYZ021-027>030-104>119-281000-
...SOUTHERN WYOMING...
  
CITY           SKY/WX    TMP DP  RH WIND       PRES   REMARKS
EVANSTON       MOCLDY    28  13  53 SW18      29.70F WCI  15          
KEMMERER       FLURRIES  28  19  69 W25G32    29.67F WCI  14          
FORT BRIDGER   NOT AVBL                                               
ROCK SPRINGS   CLOUDY    27  14  58 SW10      29.70F WCI  17          
DIXON          MOCLDY    31  21  65 MISG      29.78F                  
RAWLINS        FLURRIES  31  15  52 SW29G40   29.65F WCI  16          
SARATOGA       CLOUDY    32  14  47 SW20G25   29.70F WCI  20          
LARAMIE        PTCLDY    27  12  53 SW21      29.64F WCI  13          
CHEYENNE       PTCLDY    36  14  40 SW15G26   29.62F WCI  27          
TORRINGTON     MOCLDY    42  18  37 W18       29.59F                  
PINE BLUFFS    NOT AVBL                                               

$$
  

SKY/WX - Weather  TMP - Temperature  DP - Dew Point  RH - Humidity
WIND - Wind Direction/Speed PRES - Barometric Pressure VSB - Visibility
WCI - Wind Chill Index E13G22 Wind - East Wind 13 mph/Gusts of 22 mph

Trending Headlines

Trending Entertainment Headlines

Frontier Radar Loop

Use the map search tool if you want to place a location marker on the radar map...

Frontier Quick Facts

National Two Day Weather Forecast


E-mail the Frontier Weather Forecast

Voice your opinion or tell us about page issues...